Location: Dillon
(41.1766°N, 107.0923°W)
Time: 00:32:54
(UTC+00:00)

SJ-7 - Pass Details

Date: 13 December 2022
Orbit: 549 x 592 km, 97.7° (Epoch: 08 February)

Event Time Altitude Azimuth Distance (km) Brightness Sun altitude
Rises 12:16:49 0° 23° (NNE) 2,740 8.0 -23.3°
Reaches altitude 10° 12:19:09 10° 34° (NE) 1,846 7.3 -22.9°
Maximum altitude 12:22:41 30° 97° (E) 1,016 6.3 -22.3°
Drops below altitude 10° 12:26:15 10° 159° (SSE) 1,854 7.4 -21.6°
Sets 12:28:37 0° 171° (S) 2,764 8.2 -21.2°
